Regional Weather Roundup
Issued by NWS

Home | Current Version | Previous Version | Text Only | Print | Product List | Glossary Off
Versions: 1 2 3 4 5 6 7 8 9 10 11 12 13 14 15 16 17 18 19 20 21 22 23 24 25 26 27 28 29 30 31 32 33 34 35 36 37 38 39 40 41 42 43 44 45 46 47 48 49 50

000
ASUS43 KMKX 240859
RWRWI

WISCONSIN REGIONAL WEATHER ROUNDUP
NATIONAL WEATHER SERVICE MILWAUKEE/SULLIVAN WI
300 AM CST SAT FEB 24 2018

NOTE: "FAIR" INDICATES FEW OR NO CLOUDS BELOW 12,000 FEET WITH NO
SIGNIFICANT WEATHER AND/OR OBSTRUCTIONS TO VISIBILITY.

WIZ001-002-006>008-014>016-023>028-241000-
NORTHWEST WISCONSIN

CITY           SKY/WX    TMP DP  RH WIND       PRES   REMARKS
SUPERIOR ARPT  FAIR      15   8  73 SW5       30.25S WCI   8
ASHLAND        FAIR      16  15  96 SW5       30.23S WCI   9
HAYWARD        FOG        3  -1  83 CALM      30.21S VSB 1
SIREN          FAIR       2  -1  84 CALM      30.23F FOG
CUMBERLAND     FOG        0  -6  78 CALM      30.21F VSB<1/4
RICE LAKE      FOG        1  -2  87 CALM      30.23F VSB<1/4
CHETEK         MOCLDY     4   1  88 CALM      30.23S
LADYSMITH      CLOUDY     5   2  88 CALM      30.23F FOG
EAU CLAIRE     FOG       10   6  84 CALM      30.25S VSB 3/4
MENOMONIE        N/A      1  -3  83 CALM      30.25F FOG
NEW RICHMOND   FOG       -1  -5  83 CALM      30.24S VSB 1
OSCEOLA        FOG        0  -4  84 CALM      30.26F VSB<1/4
$$

WIZ003>005-009-010-017-018-241000-
NORTH CENTRAL WISCONSIN

CITY           SKY/WX    TMP DP  RH WIND       PRES   REMARKS
MANITOWISH WTR FOG       10  10 100 CALM      30.17F VSB<1/4
ARBOR VITAE    FOG       13  11  91 CALM      30.17F VSB 1
WOODRUFF       FOG       13  11  91 CALM      30.17F VSB 1
RHINELANDER    FOG       10   9  95 CALM      30.18S VSB 1/4
EAGLE RIVER    FOG       15  14  97 CALM      30.17F VSB 1/4
LAND O LAKES   CLOUDY    23  21  91 CALM      30.19F
PHILLIPS       FOG        4   2  91 CALM      30.18F VSB<1/4
TOMAHAWK       FAIR       1  -1  88 CALM      30.20F
MEDFORD        FOG        4   1  87 CALM      30.20R VSB<1/4
MERRILL        FOG        8   6  90 CALM      30.22R VSB<1/4
$$

WIZ029-030-035-036-043>047-241000-
CENTRAL WISCONSIN

CITY           SKY/WX    TMP DP  RH WIND       PRES   REMARKS
WAUSAU         MOCLDY    16  15  96 S6        30.22R FOG     WCI   7
MOSINEE        MOCLDY    18  18 100 S5        30.24S FOG     WCI  11
MARSHFIELD     MOCLDY    15  13  91 SW3       30.22F FOG
STEVENS POINT  FAIR      19  19 100 CALM      30.26F FOG
WAUPACA        FAIR      26  22  84 CALM      30.27S
WAUTOMA        FAIR      21  19  92 CALM      30.27F
WISC RAPIDS    FAIR      19  15  84 CALM      30.27S FOG
CAMP DOUGLAS   FAIR      18  18  97 CALM      30.26F FOG
$$

WIZ011>013-019>022-031-037>040-048>050-241000-
NORTHEAST WISCONSIN

CITY           SKY/WX    TMP DP  RH WIND       PRES   REMARKS
ANTIGO         FOG        7   6  92 S5        30.20S VSB<1/4 WCI  -1
SHAWANO        CLOUDY    30  24  77 SW3       30.26R
OCONTO         CLOUDY    31  22  70 CALM      30.26S
STURGEON BAY   CLOUDY    31  24  75 W3        30.27S
GREEN BAY      CLOUDY    31  22  69 NW3       30.27S
MANITOWOC      CLOUDY    30  24  78 NW5       30.26F WCI  25
APPLETON       MOCLDY    27  19  74 SW3       30.25S
CLINTONVILLE   CLOUDY    29  22  76 W3        30.26S
OSHKOSH        MOCLDY    28  21  75 CALM      30.25F
$$

WIZ032>034-041-042-053>061-241000-
SOUTHWEST WISCONSIN

CITY           SKY/WX    TMP DP  RH WIND       PRES   REMARKS
LA CROSSE      FAIR      22  20  92 E3        30.27F FOG
SPARTA         FAIR      18  17  96 CALM      30.28F FOG
VIROQUA        FAIR      22  22 100 E3        30.24F
BOSCOBEL       FAIR      24  21  88 CALM      30.25F FOG
PRAIRIE DU CHI MOCLDY    24  20  85 N3        30.26F
PLATTEVILLE    FAIR      26  26 100 N9        30.22F WCI  16
$$

WIZ056-057-062-063-064-067-068-241000-
SOUTH CENTRAL WISCONSIN

CITY           SKY/WX    TMP DP  RH WIND       PRES   REMARKS
REEDSBURG      CLOUDY    26  22  84 NE5       30.25F WCI  21
BARABOO/DELLS  CLOUDY    27  22  80 NE3       30.25F
LONE ROCK      NOT AVBL
MINERAL POINT  CLOUDY    28  28 100 NE7       30.22F WCI  21
MADISON        MOCLDY    26  22  84 N6        30.25F WCI  19
MIDDLETON      CLOUDY    30  25  83 N9        30.24F WCI  21
WATERTOWN      FAIR      28  24  87 N7        30.25F WCI  20
MONROE         FAIR      28  27  93 N13       30.21F WCI  18
JANESVILLE     FAIR      30  28  93 N7        30.22F WCI  23
$$

WIZ051-052-058>065-066-070>072-241000-
SOUTHEAST WISCONSIN

CITY           SKY/WX    TMP DP  RH WIND       PRES   REMARKS
MILWAUKEE      MOCLDY    31  25  78 N9        30.23F WCI  23
WAUKESHA       CLOUDY    28  23  80 N6        30.25F WCI  22
MILWAUKEE/TIMM MOCLDY    28  23  80 N6        30.25F WCI  22
RACINE         FAIR      30  25  81 N6        30.25F WCI  24
BURLINGTON     FAIR      28  24  85 N5        30.24F WCI  23
KENOSHA        FAIR      31  25  78 N8        30.23F WCI  23
FOND DU LAC    CLOUDY    30  21  69 N5        30.25F WCI  25
SHEBOYGAN      CLOUDY    31  24  75 N6        30.26F WCI  25
WEST BEND      CLOUDY    30  27  86 N6        30.25F WCI  24
JUNEAU         CLOUDY    28  23  79 N5        30.27F WCI  23
$$

LSZ147-162-241000-
LAKE SUPERIOR

STATION/POSITION TIME  TEMP    WIND        PRES    WAVE
                       AIR SEA DIR/SP/G            HT/PER
                 (UTC) (F)     (DEG/KT/KT) (MB)    (FT/S)
DEVILS ISLAND    0800   25     280/ 14/ 14 1024.2S
SAXON HARBOR     0830   19     200/  4/  6 1023.0S
$$

LMZ867-665-643>646-241000-
LAKE MICHIGAN

STATION/POSITION TIME  TEMP    WIND        PRES    WAVE
                       AIR SEA DIR/SP/G            HT/PER
                 (UTC) (F)     (DEG/KT/KT) (MB)    (FT/S)
NORTHPORT PIER   0840   32                 1024.0F
KEWAUNEE LAKESHO 0830   31        CALM     1024.1F
SHEBOYGAN LAKESH 0800   32     320/  4/  5 1025.7F
PORT WASHINGTON  0830   31     360/  5/  7 1025.7F
KENOSHA   LAKESH 0800   32      10/ 14/ 15 1023.7
$$

TC  - TEMPERATURE IN CELSIUS
VSB - VISIBILITY IN STATUTE MILES
WCI - WIND CHILL INDEX
HX  - HEAT INDEX





USA.gov is the U.S. government's official web portal to all federal, state and local government web resources and services.